Terug naar catalogus

DELTA 1 DEB

ActiefSSO
NORAD 7143·DEBRIS·🇺🇸 United States

Gelanceerd Nov 6, 1973 vanaf Vandenberg Space Force Base

Loading…

Volgende Passages (komende 24 uur)

TLE

VersSource: Space-Track

Epoch: Sep 14, 2026, 00:42 UTC

1 07143U 73086DH  26257.02957650 -.00000030  00000-0  98414-4 0  9999
2 07143 101.7597 278.7754 0047785 226.8119 159.8336 12.33016636378292

Volg DELTA 1 DEB in realtime met AllMySat

Download on the App Store